CW8866 Westlawn VA US current weather conditions

sailwx.info

Wind from 339 at 4 knots gusting 8

Last reported at 2020-Jan-21 06:06 UTC.
Time now 2020-Jan-21 06:34 UTC

Location: N 38°51' W 077°11'.
View on Google Maps.

See reports from other nearby stations

  
Tides and Currents Weather Stations Pressure Air Temp Water Temp Dewpoint Dewpoint Depression Visibility Wind Speed Wind Dir Waves Ship Positions
date/time (UTC)wind fromknots sea level pressurealtimeterstation pressurevisibilityair tempwater tempwave heightnotes
2020-Jan-21 06:06 339 4 gusting 8
2020-Jan-21 05:56 305 6 gusting 13
2020-Jan-21 05:46 025 5 gusting 12
2020-Jan-21 05:36 318 5 gusting 13
2020-Jan-21 05:26 335 3 gusting 11
2020-Jan-21 05:16 342 6 gusting 13
2020-Jan-21 05:06 330 6 gusting 11
2020-Jan-21 04:56 346 5 gusting 11
2020-Jan-21 04:46 356 2 gusting 13
2020-Jan-21 04:36 326 4 gusting 9
2020-Jan-21 04:26 014 7 gusting 13
2020-Jan-21 04:16 347 9 gusting 15
2020-Jan-21 04:06 319 4 gusting 8
2020-Jan-21 03:56 352 6 gusting 9
2020-Jan-21 03:46 316 4 gusting 9
2020-Jan-21 03:36 323 4 gusting 12
2020-Jan-21 03:26 326 6 gusting 13
2020-Jan-21 03:16 330 3 gusting 7
2020-Jan-21 03:06 360 7 gusting 13
2020-Jan-21 02:56 350 2 gusting 6
2020-Jan-21 02:46 301 3 gusting 8
2020-Jan-21 02:36 360 3 gusting 8
2020-Jan-21 02:26 323 5 gusting 9
2020-Jan-21 02:16 031 2 gusting 6
2020-Jan-21 02:06 360 3 gusting 9
2020-Jan-21 01:56 340 1 gusting 6
2020-Jan-21 01:46 332 4 gusting 9
2020-Jan-21 01:36 329 2 gusting 6
2020-Jan-21 01:26 352 2 gusting 7
2020-Jan-21 01:16 346 1 gusting 6
2020-Jan-21 01:06 342 0 gusting 5
2020-Jan-21 00:56 354 3 gusting 5
2020-Jan-21 00:46 308 1 gusting 6
2020-Jan-21 00:36 336 0 gusting 6
2020-Jan-21 00:26 313 0 gusting 6
2020-Jan-21 00:16 302 2 gusting 6
2020-Jan-21 00:06 326 2 gusting 7
2020-Jan-20 23:56 329 4 gusting 6
2020-Jan-20 23:46 360 2 gusting 7
2020-Jan-20 23:36 001 2 gusting 6
2020-Jan-20 23:26 322 3 gusting 6
2020-Jan-20 23:16 312 2 gusting 5
2020-Jan-20 23:06 288 4 gusting 6
2020-Jan-20 22:56 335 1 gusting 6
2020-Jan-20 22:46 336 1 gusting 8
2020-Jan-20 22:36 328 2 gusting 6
2020-Jan-20 22:26 315 4 gusting 7
2020-Jan-20 22:16 336 1 gusting 8
2020-Jan-20 22:06 359 6 gusting 11
2020-Jan-20 21:56 013 4 gusting 11
2020-Jan-20 21:46 349 4 gusting 9
2020-Jan-20 21:36 344 5 gusting 12
2020-Jan-20 21:26 007 6 gusting 12
2020-Jan-20 21:16 329 3 gusting 11
2020-Jan-20 21:06 344 4 gusting 8
2020-Jan-20 20:56 337 4 gusting 8
2020-Jan-20 20:46 354 4 gusting 13
2020-Jan-20 20:36 357 6 gusting 14
2020-Jan-20 20:26 329 6 gusting 12
2020-Jan-20 20:16 312 4 gusting 13
2020-Jan-20 20:06 360 4 gusting 13
2020-Jan-20 19:56 298 3 gusting 11
2020-Jan-20 19:46 301 6 gusting 13
2020-Jan-20 19:36 343 2 gusting 14
2020-Jan-20 19:26 006 5 gusting 11
2020-Jan-20 19:16 313 6 gusting 11
2020-Jan-20 19:06 003 5 gusting 12
2020-Jan-20 18:56 316 6 gusting 14
2020-Jan-20 18:46 325 6 gusting 11
2020-Jan-20 18:36 311 6 gusting 11
2020-Jan-20 18:26 359 6 gusting 12
2020-Jan-20 18:16 360 5 gusting 12
2020-Jan-20 18:06 352 5 gusting 13
2020-Jan-20 17:56 008 6 gusting 13
2020-Jan-20 17:46 360 5 gusting 8
2020-Jan-20 17:36 320 5 gusting 14
2020-Jan-20 17:26 001 6 gusting 13 -0.6
2020-Jan-20 17:16 360 6 gusting 11 -0.6
2020-Jan-20 17:06 344 7 gusting 14 -0.6
2020-Jan-20 16:56 045 3 gusting 8 -0.6
2020-Jan-20 16:46 360 4 gusting 13 -1.1
2020-Jan-20 16:36 346 6 gusting 13 -1.1
2020-Jan-20 16:26 289 6 gusting 8 -1.7
2020-Jan-20 16:16 360 4 gusting 12 -1.7
2020-Jan-20 16:06 322 8 gusting 13 -1.7
2020-Jan-20 15:56 006 6 gusting 13 -1.7
2020-Jan-20 15:46 322 7 gusting 17 -1.7
2020-Jan-20 15:36 350 6 gusting 9 -1.7
2020-Jan-20 15:26 352 4 gusting 13 -2.2
2020-Jan-20 15:16 328 4 gusting 13 -2.8
2020-Jan-20 15:06 342 7 gusting 12 -2.8
2020-Jan-20 14:56 352 6 gusting 12
2020-Jan-20 14:46 344 6 gusting 13
2020-Jan-20 14:36 333 5 gusting 13
2020-Jan-20 14:26 360 5 gusting 13
2020-Jan-20 14:16 296 4 gusting 8
2020-Jan-20 14:06 347 6 gusting 15
2020-Jan-20 13:56 313 7 gusting 13
2020-Jan-20 13:46 299 6 gusting 7
2020-Jan-20 13:36 330 4 gusting 13
2020-Jan-20 13:26 349 6 gusting 11
2020-Jan-20 13:16 315 7 gusting 14
2020-Jan-20 13:06 294 6 gusting 9
2020-Jan-20 12:56 306 6 gusting 12
2020-Jan-20 12:46 257 6 gusting 9
2020-Jan-20 12:36 320 4 gusting 8
2020-Jan-20 12:26 313 6 gusting 9
2020-Jan-20 12:16 268 6 gusting 8
2020-Jan-20 12:06 322 6 gusting 7
2020-Jan-20 11:56 289 4 gusting 7
2020-Jan-20 11:46 289 3 gusting 6
2020-Jan-20 11:36 344 5 gusting 9
2020-Jan-20 11:26 323 4 gusting 7
2020-Jan-20 11:16 298 2 gusting 7
2020-Jan-20 11:06 288 4 gusting 12
2020-Jan-20 10:56 296 4 gusting 11
2020-Jan-20 10:46 339 5 gusting 12
2020-Jan-20 10:36 281 1 gusting 11
2020-Jan-20 10:26 309 2 gusting 9
2020-Jan-20 10:16 354 6 gusting 9
2020-Jan-20 10:06 301 3 gusting 9
2020-Jan-20 09:56 299 2 gusting 8
2020-Jan-20 09:46 309 3 gusting 7
2020-Jan-20 09:36 294 5 gusting 8
2020-Jan-20 09:26 220 5 gusting 11
2020-Jan-20 09:16 257 0 gusting 7
2020-Jan-20 09:06 301 5 gusting 15
2020-Jan-20 08:56 313 5 gusting 14
2020-Jan-20 08:46 339 4 gusting 13
2020-Jan-20 08:36 309 3 gusting 13
2020-Jan-20 08:26 336 3 gusting 11
2020-Jan-20 08:16 309 6 gusting 14
2020-Jan-20 08:06 325 5 gusting 13
2020-Jan-20 07:56 336 4 gusting 9
2020-Jan-20 07:46 330 6 gusting 12
2020-Jan-20 07:36 298 6 gusting 9
2020-Jan-20 07:26 291 6 gusting 9
2020-Jan-20 07:16 315 6 gusting 14
2020-Jan-20 07:06 320 6 gusting 13
2020-Jan-20 06:56 326 6 gusting 9
2020-Jan-20 06:46 302 8 gusting 13
2020-Jan-20 06:36 313 6 gusting 13
2020-Jan-20 06:26 357 3 gusting 13
2020-Jan-20 06:16 333 7 gusting 13
2020-Jan-20 06:06 065 9 gusting 17
2020-Jan-20 05:56 320 5 gusting 11
2020-Jan-20 05:46 311 6 gusting 13
2020-Jan-20 05:36 302 8 gusting 15
2020-Jan-20 05:26 316 5 gusting 11
2020-Jan-20 05:16 295 5 gusting 11
2020-Jan-20 05:06 305 4 gusting 12
2020-Jan-20 04:56 313 6 gusting 8
2020-Jan-20 04:46 292 5 gusting 9
2020-Jan-20 04:36 360 6 gusting 12
2020-Jan-20 04:26 337 6 gusting 17
2020-Jan-20 04:16 322 7 gusting 12
2020-Jan-20 04:06 339 5 gusting 14
2020-Jan-20 03:56 325 2 gusting 14
2020-Jan-20 03:46 308 6 gusting 13
2020-Jan-20 03:36 335 7 gusting 14 -2.2
2020-Jan-20 03:26 311 4 gusting 14
2020-Jan-20 03:16 244 6 gusting 14
2020-Jan-20 03:06 330 6 gusting 18
2020-Jan-20 02:56 007 9 gusting 13
2020-Jan-20 02:46 318 3 gusting 13
2020-Jan-20 02:36 336 2 gusting 13
2020-Jan-20 02:26 280 4 gusting 9
2020-Jan-20 02:16 291 1 gusting 12
2020-Jan-20 02:06 288 3 gusting 11
2020-Jan-20 01:56 319 5 gusting 11
2020-Jan-20 01:46 308 5 gusting 11
2020-Jan-20 01:36 298 6 gusting 14
2020-Jan-20 01:26 337 3 gusting 9
2020-Jan-20 01:16 346 7 gusting 13
2020-Jan-20 01:06 329 4 gusting 7
2020-Jan-20 00:56 298 5 gusting 12
2020-Jan-20 00:46 306 6 gusting 14
2020-Jan-20 00:36 253 6 gusting 14 -0.6
2020-Jan-20 00:26 346 7 gusting 15 -0.6
2020-Jan-20 00:16 306 6 gusting 11
2020-Jan-20 00:06 328 6 gusting 12
2020-Jan-19 23:56 356 6 gusting 13
2020-Jan-19 23:46 339 6 gusting 12
2020-Jan-19 23:36 301 6 gusting 17
2020-Jan-19 23:26 323 5 gusting 15
2020-Jan-19 23:16 301 7 gusting 13
2020-Jan-19 23:06 274 4 gusting 12
2020-Jan-19 22:56 281 3 gusting 14
2020-Jan-19 22:46 285 6 gusting 13
2020-Jan-19 22:36 315 6 gusting 13
2020-Jan-19 22:26 302 1 gusting 7
2020-Jan-19 22:16 328 1 gusting 7 1.7
2020-Jan-19 22:06 320 1 gusting 1 1.7
2020-Jan-19 21:26 352 4 gusting 15 2.2
2020-Jan-19 21:16 282 7 gusting 13 2.2
2020-Jan-19 21:06 298 6 gusting 12 2.2
2020-Jan-19 20:56 319 6 gusting 15 2.8
2020-Jan-19 20:46 316 4 gusting 18 2.8
2020-Jan-19 20:36 323 6 gusting 14 2.8
2020-Jan-19 20:26 281 11 gusting 14 2.8
2020-Jan-19 20:16 301 7 gusting 15 2.8
2020-Jan-19 20:06 302 6 gusting 13 2.8
2020-Jan-19 19:56 299 6 gusting 18 2.8
2020-Jan-19 19:46 343 9 gusting 15 2.8
2020-Jan-19 19:36 267 7 gusting 15 3.3
2020-Jan-19 19:26 326 10 gusting 19 3.3
2020-Jan-19 19:16 003 7 gusting 18 3.3
2020-Jan-19 19:06 282 9 gusting 22 3.9
2020-Jan-19 18:56 328 8 gusting 20 4.4
2020-Jan-19 18:46 288 11 gusting 18 4.4
2020-Jan-19 18:36 326 6 gusting 21 5.0
2020-Jan-19 18:26 299 10 gusting 19 5.0
2020-Jan-19 18:16 311 10 gusting 21 5.0
2020-Jan-19 18:06 336 7 gusting 15 5.0
2020-Jan-19 17:56 285 7 gusting 21 5.6
2020-Jan-19 17:46 339 8 gusting 18 5.6
2020-Jan-19 17:36 346 6 gusting 14 6.1
2020-Jan-19 17:26 304 7 gusting 24 6.1
2020-Jan-19 17:16 296 6 gusting 15 6.1
2020-Jan-19 17:06 325 7 gusting 13 6.1
2020-Jan-19 16:56 343 9 gusting 15 6.1
2020-Jan-19 16:46 360 6 gusting 14 6.1
2020-Jan-19 16:36 346 10 gusting 18 6.1
2020-Jan-19 16:26 340 5 gusting 12 6.1
2020-Jan-19 16:16 339 6 gusting 14 6.1
2020-Jan-19 16:06 315 6 gusting 15 6.1
2020-Jan-19 15:56 308 5 gusting 14 6.1
2020-Jan-19 15:46 308 8 gusting 13 6.1
2020-Jan-19 15:36 023 9 gusting 15 5.6
2020-Jan-19 15:26 280 6 gusting 13 5.6
2020-Jan-19 15:16 304 6 gusting 18 5.6
2020-Jan-19 15:06 304 4 gusting 15 5.0
2020-Jan-19 14:56 339 5 gusting 13 4.4
2020-Jan-19 14:46 340 8 gusting 15 3.9
2020-Jan-19 14:36 320 5 gusting 13 3.9
2020-Jan-19 14:26 306 7 gusting 13 3.3
2020-Jan-19 14:16 298 7 gusting 13 3.3
2020-Jan-19 14:06 313 3 gusting 9 3.3
2020-Jan-19 13:56 332 6 gusting 13 3.3
2020-Jan-19 13:46 323 3 gusting 13 3.3
2020-Jan-19 13:36 309 6 gusting 14 3.3
2020-Jan-19 13:26 296 8 gusting 12 2.8
2020-Jan-19 13:16 280 3 gusting 11 2.8
2020-Jan-19 13:06 330 2 gusting 6 2.8
2020-Jan-19 12:56 306 1 gusting 6 2.8
2020-Jan-19 12:46 311 0 gusting 5 2.8
2020-Jan-19 12:36 311 3.3
2020-Jan-19 12:26 298 3.3
2020-Jan-19 12:16 298 3.3
2020-Jan-19 12:06 298 3.3
2020-Jan-19 11:56 298 3.9
2020-Jan-19 11:46 298 3.9
2020-Jan-19 11:36 298 4.4
2020-Jan-19 11:26 298 4.4
2020-Jan-19 11:16 298 4.4
2020-Jan-19 11:06 298 5.0
2020-Jan-19 10:56 298 5.0
2020-Jan-19 10:46 298 5.0
2020-Jan-19 10:36 316 0 gusting 5 5.0
2020-Jan-19 10:26 328 0 gusting 3 5.0
2020-Jan-19 10:16 336 0 gusting 3 5.0
2020-Jan-19 10:06 343 2 gusting 7 4.4
2020-Jan-19 09:56 313 5.0
2020-Jan-19 09:46 313 5.0
2020-Jan-19 09:36 313 5.0
2020-Jan-19 09:26 313 5.0
2020-Jan-19 09:16 313 5.0
2020-Jan-19 09:06 313 5.0
2020-Jan-19 08:56 313 5.0
2020-Jan-19 08:46 313 5.0
2020-Jan-19 08:36 4.4
2020-Jan-19 08:26 4.4
2020-Jan-19 08:16 4.4
2020-Jan-19 08:06 313 4.4
2020-Jan-19 07:56 313 4.4
2020-Jan-19 07:46 313 4.4
2020-Jan-19 07:36 263 4.4
2020-Jan-19 07:26 143 4.4
2020-Jan-19 07:16 196 0 gusting 6 4.4
2020-Jan-19 07:06 200 0 gusting 5 4.4
2020-Jan-19 06:56 212 4.4
2020-Jan-19 06:46 191 4.4
2020-Jan-19 06:36 138 0 gusting 6 4.4
2020-Jan-19 06:26 213 2 gusting 7 4.4
2020-Jan-19 06:16 257 4.4
2020-Jan-19 06:06 196 1 gusting 6 4.4